Preview of NWS' New Version of Forecast
This preview is not operational and should not be used for support decisions.

Regional Weather Roundup (RWR)

Issued by National Weather Service (NWS)

                            
000
ASUS44 KMEG 220200
RWRTN 
TENNESSEE HOURLY STATE WEATHER ROUNDUP
NATIONAL WEATHER SERVICE MEMPHIS TN
900 PM CDT SAT SEP 21 2019

TNZ002-004-019-021-049-052-054-088>092-220300-
WEST TENNESSEE
  
CITY           SKY/WX    TMP DP  RH WIND       PRES   REMARKS
MEMPHIS INTL   FAIR      77  61  57 S3        30.12R                  
NWS MEMPHIS      N/A     78 N/A N/A MISG        N/A                   
JACKSON        FAIR      71  61  70 S6        30.15R                  
DYERSBURG      FAIR      77  61  57 SE5       30.14R                  
$$

TNZ008-025-027-028-033-062-065-066-220300-
NORTH MIDDLE TENNESSEE
  
CITY           SKY/WX    TMP DP  RH WIND       PRES   REMARKS
NASHVILLE      FAIR      76  55  48 S5        30.17S                  
CLARKSVILLE    FAIR      71  58  63 CALM      30.15R                  
SMYRNA         FAIR      68  60  75 CALM      30.18S HAZE             
CROSSVILLE     FAIR      66  56  70 CALM      30.27R                  
$$

TNZ061-075-076-078-094-096-097-220300-
SOUTH MIDDLE TENNESSEE
  
CITY           SKY/WX    TMP DP  RH WIND       PRES   REMARKS
$$

TNZ017-018-042-046-047-220300-
NORTHEAST TENNESSEE
  
CITY           SKY/WX    TMP DP  RH WIND       PRES   REMARKS
TRI CITIES     FAIR      67  60  78 CALM      30.25R                  
$$

TNZ012-013-036-069-073-074-220300-
CENTRAL EAST TENNESSEE
  
CITY           SKY/WX    TMP DP  RH WIND       PRES   REMARKS
KNOXVILLE      MOCLDY    77  60  55 CALM      30.21R                  
OAK RIDGE      FAIR      73  61  65 CALM      30.23R                  
$$

TNZ083-085-099-220300-
SOUTHEAST TENNESSEE
  
CITY           SKY/WX    TMP DP  RH WIND       PRES   REMARKS
CHATTANOOGA    FAIR      76  59  55 CALM      30.21R                  
$$

SKY/WX REPORTED AS FAIR MEANS FEW OR NO CLOUDS BELOW
12 THOUSAND FEET.